| time (UTC) | temp F | wind direction | speed knots | gust knots | rain 1hr in | rain 24hr in | rain mn in | humidity % | barometer mb |
| 20260507051624 | 45 | 263 | 0.0 | 0.0 | 0.00 | 0.01 | 0.01 | 46 | 1026.8 |
| 20260507051121 | 45 | 264 | 0.0 | 0.9 | 0.00 | 0.01 | 0.01 | 44 | 1026.5 |
| 20260507050618 | 46 | 317 | 0.0 | 0.0 | 0.00 | 0.01 | 0.01 | 46 | 1026.6 |
| 20260507050114 | 46 | 277 | 0.9 | 1.7 | 0.00 | 0.01 | 0.01 | 42 | 1026.5 |
| 20260507045611 | 46 | 90 | 0.0 | 0.0 | 0.00 | 0.01 | 0.01 | 39 | 1026.3 |
| 20260507045108 | 46 | 90 | 0.0 | 0.9 | 0.00 | 0.01 | 0.01 | 43 | 1026.2 |
| 20260507044605 | 46 | 90 | 0.0 | 1.7 | 0.00 | 0.01 | 0.01 | 43 | 1026.2 |
| 20260507044102 | 46 | 90 | 0.9 | 0.9 | 0.00 | 0.01 | 0.01 | 43 | 1026.3 |
| 20260507043557 | 46 | 89 | 0.9 | 0.9 | 0.00 | 0.01 | 0.01 | 44 | 1026.3 |
| 20260507043055 | 46 | 88 | 0.9 | 1.7 | 0.00 | 0.01 | 0.01 | 44 | 1026.3 |
| 20260507042551 | 46 | 85 | 0.9 | 1.7 | 0.00 | 0.01 | 0.01 | 45 | 1026.3 |
| 20260507042046 | 46 | 94 | 0.9 | 1.7 | 0.00 | 0.01 | 0.01 | 45 | 1026.1 |
| 20260507041544 | 47 | 93 | 0.9 | 1.7 | 0.00 | 0.01 | 0.01 | 45 | 1026.2 |
| 20260507041041 | 47 | 91 | 0.9 | 2.6 | 0.00 | 0.01 | 0.01 | 44 | 1026.1 |
| 20260507040537 | 48 | 90 | 1.7 | 1.7 | 0.00 | 0.01 | 0.01 | 43 | 1026.0 |
| 20260507040033 | 48 | 87 | 0.9 | 1.7 | 0.00 | 0.01 | 0.01 | 42 | 1026.0 |
| 20260507035529 | 49 | 105 | 1.7 | 1.7 | 0.00 | 0.01 | 0.01 | 41 | 1026.0 |
| 20260507035026 | 49 | 99 | 0.0 | 1.7 | 0.00 | 0.01 | 0.01 | 41 | 1026.0 |
| 20260507034523 | 49 | 99 | 0.0 | 0.9 | 0.00 | 0.01 | 0.01 | 41 | 1025.8 |
| 20260507034021 | 50 | 91 | 0.0 | 1.7 | 0.00 | 0.01 | 0.01 | 41 | 1025.8 |
| 20260507033518 | 50 | 94 | 0.9 | 1.7 | 0.00 | 0.01 | 0.01 | 41 | 1025.6 |
| 20260507033015 | 51 | 96 | 0.9 | 1.7 | 0.00 | 0.01 | 0.01 | 39 | 1025.8 |
| 20260507032512 | 51 | 110 | 0.9 | 0.9 | 0.00 | 0.01 | 0.01 | 37 | 1025.8 |
| 20260507032008 | 51 | 136 | 0.9 | 0.9 | 0.00 | 0.01 | 0.01 | 36 | 1025.5 |
| 20260507031504 | 52 | 151 | 0.9 | 0.9 | 0.00 | 0.01 | 0.01 | 36 | 1025.6 |
| 20260507031002 | 53 | 171 | 0.0 | 0.9 | 0.00 | 0.01 | 0.01 | 35 | 1025.3 |
| 20260507030459 | 53 | 171 | 0.0 | 0.9 | 0.00 | 0.01 | 0.01 | 35 | 1025.2 |
| 20260507025956 | 54 | 171 | 0.9 | 0.9 | 0.00 | 0.01 | 0.01 | 35 | 1025.1 |
| 20260507025453 | 55 | 171 | 0.0 | 0.0 | 0.00 | 0.01 | 0.01 | 32 | 1025.1 |
| 20260507024951 | 55 | 171 | 0.0 | 0.0 | 0.00 | 0.01 | 0.01 | 32 | 1025.1 |
| 20260507024448 | 56 | 171 | 0.0 | 0.9 | 0.00 | 0.01 | 0.01 | 32 | 1025.0 |
| 20260507023944 | 56 | 171 | 0.0 | 0.9 | 0.00 | 0.01 | 0.01 | 31 | 1024.9 |
| 20260507023441 | 57 | 172 | 0.9 | 0.9 | 0.00 | 0.01 | 0.01 | 30 | 1024.9 |
| 20260507022938 | 57 | 163 | 0.9 | 0.9 | 0.00 | 0.01 | 0.01 | 29 | 1024.9 |
| 20260507022435 | 56 | 161 | 0.0 | 0.9 | 0.00 | 0.01 | 0.01 | 32 | 1024.7 |
| 20260507021930 | 57 | 161 | 0.9 | 0.9 | 0.00 | 0.01 | 0.01 | 35 | 1024.5 |
| 20260507021426 | 57 | 155 | 0.0 | 0.0 | 0.00 | 0.01 | 0.01 | 34 | 1024.2 |
| 20260507020924 | 57 | 155 | 0.0 | 0.0 | 0.00 | 0.01 | 0.01 | 34 | 1024.2 |
| 20260507020420 | 58 | 155 | 0.0 | 0.0 | 0.00 | 0.01 | 0.01 | 33 | 1024.4 |
| 20260507015918 | 59 | 155 | 0.0 | 0.0 | 0.00 | 0.01 | 0.01 | 33 | 1024.2 |
| 20260507015416 | 59 | 155 | 0.0 | 0.0 | 0.00 | 0.01 | 0.01 | 32 | 1024.4 |
| 20260507014912 | 59 | 155 | 0.0 | 0.9 | 0.00 | 0.01 | 0.01 | 32 | 1024.5 |
| 20260507014409 | 60 | 155 | 0.0 | 0.0 | 0.00 | 0.01 | 0.01 | 31 | 1024.2 |
| 20260507013905 | 60 | 156 | 0.0 | 0.0 | 0.00 | 0.01 | 0.01 | 30 | 1024.1 |
| 20260507013402 | 60 | 155 | 0.0 | 0.0 | 0.00 | 0.01 | 0.01 | 30 | 1024.2 |
| 20260507012900 | 61 | 155 | 0.0 | 0.9 | 0.00 | 0.01 | 0.01 | 30 | 1024.1 |
| 20260507012356 | 61 | 24 | 1.7 | 1.7 | 0.00 | 0.01 | 0.01 | 28 | 1024.1 |
| 20260507011853 | 61 | 155 | 0.0 | 0.9 | 0.00 | 0.01 | 0.01 | 29 | 1024.1 |
| 20260507011349 | 62 | 178 | 0.0 | 0.0 | 0.00 | 0.01 | 0.01 | 29 | 1024.2 |
| 20260507010844 | 62 | 231 | 0.0 | 1.7 | 0.00 | 0.01 | 0.01 | 28 | 1023.9 |
| 20260507010340 | 62 | 218 | 0.0 | 0.9 | 0.00 | 0.01 | 0.01 | 28 | 1024.1 |
| 20260507005837 | 62 | 226 | 0.0 | 1.7 | 0.00 | 0.01 | 0.01 | 28 | 1023.9 |
| 20260507005333 | 62 | 221 | 0.0 | 0.9 | 0.00 | 0.01 | 0.01 | 28 | 1023.9 |
| 20260507004831 | 62 | 187 | 0.0 | 0.9 | 0.00 | 0.01 | 0.01 | 27 | 1023.9 |
| 20260507004328 | 62 | 186 | 0.0 | 0.9 | 0.00 | 0.01 | 0.01 | 28 | 1023.9 |
| 20260507003825 | 62 | 169 | 0.9 | 0.9 | 0.00 | 0.01 | 0.01 | 28 | 1023.6 |
| 20260507003321 | 61 | 268 | 0.0 | 0.9 | 0.00 | 0.01 | 0.01 | 28 | 1023.6 |
| 20260507002815 | 62 | 130 | 0.0 | 0.9 | 0.00 | 0.01 | 0.01 | 29 | 1023.7 |
| 20260507002312 | 62 | 129 | 0.0 | 1.7 | 0.00 | 0.01 | 0.01 | 29 | 1023.7 |
| 20260507001809 | 63 | 78 | 2.6 | 4.3 | 0.00 | 0.01 | 0.01 | 27 | 1023.5 |
| 20260507001306 | 63 | 164 | 1.7 | 4.3 | 0.00 | 0.01 | 0.01 | 27 | 1023.4 |
| 20260507000803 | 63 | 48 | 2.6 | 4.3 | 0.00 | 0.01 | 0.01 | 27 | 1023.5 |
| 20260507000259 | 64 | 91 | 1.7 | 2.6 | 0.00 | 0.01 | 0.01 | 27 | 1023.4 |
| 20260506235755 | 64 | 92 | 2.6 | 2.6 | 0.00 | 0.01 | 0.01 | 26 | 1023.2 |
| 20260506235251 | 64 | 128 | 0.9 | 0.9 | 0.00 | 0.01 | 0.01 | 26 | 1023.4 |
| 20260506234748 | 65 | 83 | 2.6 | 4.3 | 0.00 | 0.01 | 0.01 | 25 | 1023.4 |
| 20260506234245 | 65 | 137 | 0.0 | 4.3 | 0.00 | 0.01 | 0.01 | 25 | 1023.4 |
| 20260506233743 | 65 | 56 | 4.3 | 5.2 | 0.00 | 0.01 | 0.01 | 25 | 1023.1 |
| 20260506233239 | 66 | 150 | 0.0 | 2.6 | 0.00 | 0.01 | 0.01 | 24 | 1023.2 |
| 20260506232736 | 63 | 84 | 2.6 | 2.6 | 0.00 | 0.01 | 0.01 | 25 | 1023.1 |
| 20260506232230 | 66 | 122 | 2.6 | 2.6 | 0.00 | 0.01 | 0.01 | 24 | 1023.2 |
| 20260506231728 | 65 | 74 | 1.7 | 1.7 | 0.00 | 0.01 | 0.01 | 24 | 1023.1 |
| 20260506231226 | 66 | 326 | 2.6 | 4.3 | 0.00 | 0.01 | 0.01 | 24 | 1023.1 |
| 20260506230723 | 66 | 58 | 0.9 | 2.6 | 0.00 | 0.01 | 0.01 | 24 | 1023.0 |
| 20260506230219 | 67 | 0 | 1.7 | 7.8 | 0.00 | 0.01 | 0.01 | 25 | 1023.1 |
| 20260506225716 | 68 | 59 | 3.5 | 6.1 | 0.00 | 0.01 | 0.01 | 24 | 1023.0 |
| 20260506225213 | 68 | 343 | 2.6 | 4.3 | 0.00 | 0.01 | 0.01 | 23 | 1023.0 |
| 20260506224709 | 67 | 40 | 3.5 | 5.2 | 0.00 | 0.01 | 0.01 | 23 | 1022.9 |
| 20260506224207 | 66 | 178 | 0.9 | 7.0 | 0.00 | 0.01 | 0.01 | 24 | 1022.9 |
| 20260506223703 | 66 | 337 | 2.6 | 5.2 | 0.00 | 0.01 | 0.01 | 25 | 1023.1 |
| 20260506223158 | 66 | 54 | 0.0 | 4.3 | 0.00 | 0.01 | 0.01 | 25 | 1023.0 |
| 20260506222655 | 67 | 336 | 3.5 | 4.3 | 0.00 | 0.01 | 0.01 | 25 | 1023.0 |
| 20260506222151 | 66 | 279 | 0.9 | 5.2 | 0.00 | 0.01 | 0.01 | 25 | 1023.1 |
| 20260506221650 | 67 | 32 | 2.6 | 4.3 | 0.00 | 0.01 | 0.01 | 25 | 1023.2 |
| 20260506221147 | 66 | 73 | 1.7 | 4.3 | 0.00 | 0.01 | 0.01 | 25 | 1023.1 |
| 20260506220644 | 66 | 52 | 0.9 | 4.3 | 0.00 | 0.01 | 0.01 | 25 | 1023.1 |
| 20260506220139 | 66 | 49 | 2.6 | 7.8 | 0.00 | 0.01 | 0.01 | 26 | 1023.2 |
| 20260506215636 | 64 | 33 | 0.0 | 4.3 | 0.00 | 0.01 | 0.01 | 26 | 1023.1 |
| 20260506215131 | 66 | 206 | 1.7 | 1.7 | 0.00 | 0.01 | 0.01 | 25 | 1023.4 |
| 20260506214628 | 66 | 191 | 0.9 | 2.6 | 0.00 | 0.01 | 0.01 | 25 | 1023.6 |
| 20260506214126 | 64 | 5 | 2.6 | 4.3 | 0.00 | 0.01 | 0.01 | 28 | 1023.6 |
| 20260506213624 | 66 | 186 | 0.9 | 2.6 | 0.00 | 0.01 | 0.01 | 26 | 1023.6 |
| 20260506213121 | 65 | 51 | 1.7 | 2.6 | 0.00 | 0.01 | 0.01 | 27 | 1023.6 |
| 20260506212618 | 66 | 336 | 2.6 | 5.2 | 0.00 | 0.01 | 0.01 | 27 | 1023.6 |
| 20260506212113 | 65 | 323 | 3.5 | 5.2 | 0.00 | 0.01 | 0.01 | 27 | 1023.7 |
| 20260506211609 | 66 | 21 | 1.7 | 5.2 | 0.00 | 0.01 | 0.01 | 28 | 1023.7 |
| 20260506211106 | 66 | 71 | 1.7 | 7.0 | 0.00 | 0.01 | 0.01 | 28 | 1023.6 |
| 20260506210603 | 66 | 161 | 0.9 | 4.3 | 0.00 | 0.01 | 0.01 | 27 | 1023.6 |
| 20260506210059 | 66 | 80 | 1.7 | 2.6 | 0.00 | 0.01 | 0.01 | 27 | 1023.6 |
| 20260506205556 | 66 | 71 | 1.7 | 4.3 | 0.00 | 0.01 | 0.01 | 26 | 1023.6 |
| 20260506205051 | 64 | 349 | 2.6 | 6.1 | 0.00 | 0.01 | 0.01 | 29 | 1023.7 |
| 20260506204549 | 64 | 71 | 0.9 | 2.6 | 0.00 | 0.01 | 0.01 | 30 | 1023.9 |
| 20260506204046 | 64 | 53 | 0.9 | 2.6 | 0.00 | 0.01 | 0.01 | 30 | 1023.6 |
| 20260506203544 | 65 | 197 | 0.9 | 2.6 | 0.00 | 0.01 | 0.01 | 28 | 1023.7 |
| 20260506203041 | 67 | 199 | 0.9 | 4.3 | 0.00 | 0.01 | 0.01 | 26 | 1023.6 |
| 20260506202538 | 65 | 89 | 0.9 | 4.3 | 0.00 | 0.01 | 0.01 | 28 | 1023.7 |
| 20260506202034 | 65 | 154 | 4.3 | 7.0 | 0.00 | 0.01 | 0.01 | 27 | 1023.6 |
| 20260506201532 | 65 | 90 | 2.6 | 2.6 | 0.00 | 0.01 | 0.01 | 28 | 1023.6 |
| 20260506201028 | 64 | 344 | 4.3 | 6.1 | 0.00 | 0.01 | 0.01 | 28 | 1023.9 |
| 20260506200524 | 63 | 223 | 0.0 | 0.9 | 0.00 | 0.01 | 0.01 | 27 | 1023.6 |
| 20260506200021 | 62 | 114 | 2.6 | 5.2 | 0.00 | 0.01 | 0.01 | 29 | 1023.7 |
| 20260506195518 | 61 | 107 | 5.2 | 7.8 | 0.00 | 0.01 | 0.01 | 30 | 1023.5 |
| 20260506195015 | 64 | 300 | 1.7 | 7.0 | 0.00 | 0.01 | 0.01 | 28 | 1023.6 |
| 20260506194512 | 64 | 71 | 2.6 | 4.3 | 0.00 | 0.01 | 0.01 | 27 | 1023.6 |
| 20260506194009 | 63 | 334 | 4.3 | 7.0 | 0.00 | 0.01 | 0.01 | 30 | 1023.6 |
| 20260506193506 | 62 | 324 | 1.7 | 2.6 | 0.00 | 0.01 | 0.01 | 29 | 1023.7 |
| 20260506193003 | 63 | 107 | 2.6 | 8.7 | 0.00 | 0.01 | 0.01 | 30 | 1023.6 |
| 20260506192500 | 64 | 43 | 1.7 | 2.6 | 0.00 | 0.01 | 0.01 | 30 | 1023.7 |
| 20260506191955 | 63 | 129 | 2.6 | 2.6 | 0.00 | 0.01 | 0.01 | 29 | 1023.5 |
| 20260506191453 | 62 | 131 | 2.6 | 4.3 | 0.00 | 0.01 | 0.01 | 28 | 1023.9 |
| 20260506190949 | 62 | 219 | 2.6 | 5.2 | 0.00 | 0.01 | 0.01 | 30 | 1023.6 |
| 20260506190446 | 61 | 13 | 4.3 | 6.1 | 0.00 | 0.01 | 0.01 | 31 | 1023.6 |
| 20260506185942 | 61 | 272 | 3.5 | 7.0 | 0.00 | 0.01 | 0.01 | 31 | 1023.9 |
| 20260506185440 | 62 | 70 | 2.6 | 2.6 | 0.00 | 0.01 | 0.01 | 32 | 1023.7 |
| 20260506184937 | 63 | 187 | 0.9 | 6.1 | 0.00 | 0.01 | 0.01 | 30 | 1023.7 |
| 20260506184433 | 63 | 13 | 2.6 | 6.1 | 0.00 | 0.01 | 0.01 | 31 | 1023.7 |
| 20260506183931 | 62 | 81 | 2.6 | 4.3 | 0.00 | 0.01 | 0.01 | 31 | 1023.9 |
| 20260506183426 | 62 | 7 | 1.7 | 5.2 | 0.00 | 0.01 | 0.01 | 32 | 1024.0 |
| 20260506182923 | 62 | 335 | 3.5 | 4.3 | 0.00 | 0.01 | 0.01 | 32 | 1023.9 |
| 20260506182421 | 62 | 55 | 2.6 | 5.2 | 0.00 | 0.01 | 0.01 | 33 | 1023.9 |
| 20260506181918 | 60 | 354 | 0.9 | 5.2 | 0.00 | 0.01 | 0.01 | 35 | 1024.0 |
| 20260506181416 | 59 | 177 | 0.0 | 5.2 | 0.00 | 0.01 | 0.01 | 36 | 1023.9 |
| 20260506180912 | 60 | 57 | 2.6 | 2.6 | 0.00 | 0.01 | 0.01 | 33 | 1024.0 |
| 20260506180409 | 59 | 118 | 7.0 | 8.7 | 0.00 | 0.01 | 0.01 | 34 | 1024.0 |
| 20260506175906 | 60 | 95 | 4.3 | 6.1 | 0.00 | 0.01 | 0.01 | 35 | 1024.1 |
| 20260506175402 | 60 | 181 | 0.0 | 4.3 | 0.00 | 0.01 | 0.01 | 34 | 1024.1 |
| 20260506174859 | 60 | 350 | 0.9 | 1.7 | 0.00 | 0.01 | 0.01 | 35 | 1024.0 |
| 20260506174357 | 59 | 112 | 0.9 | 4.3 | 0.00 | 0.01 | 0.01 | 36 | 1024.0 |
| 20260506173854 | 59 | 344 | 1.7 | 4.3 | 0.00 | 0.01 | 0.01 | 37 | 1023.9 |
| 20260506173350 | 59 | 9 | 1.7 | 4.3 | 0.00 | 0.01 | 0.01 | 35 | 1023.9 |
| 20260506172848 | 58 | 130 | 2.6 | 2.6 | 0.00 | 0.01 | 0.01 | 36 | 1024.0 |
| 20260506172344 | 58 | 38 | 2.6 | 6.1 | 0.00 | 0.01 | 0.01 | 38 | 1023.7 |
| 20260506171842 | 58 | 319 | 2.6 | 4.3 | 0.00 | 0.01 | 0.01 | 36 | 1023.6 |
| 20260506171339 | 58 | 143 | 2.6 | 4.3 | 0.00 | 0.01 | 0.01 | 37 | 1023.5 |
| 20260506170836 | 57 | 44 | 1.7 | 5.2 | 0.00 | 0.01 | 0.01 | 38 | 1023.5 |
| 20260506170332 | 57 | 145 | 0.9 | 2.6 | 0.00 | 0.01 | 0.01 | 38 | 1023.6 |
| 20260506165826 | 56 | 117 | 2.6 | 5.2 | 0.00 | 0.01 | 0.01 | 38 | 1023.6 |
| 20260506165323 | 55 | 274 | 2.6 | 5.2 | 0.00 | 0.01 | 0.01 | 40 | 1023.5 |
| 20260506164819 | 55 | 85 | 0.9 | 4.3 | 0.00 | 0.01 | 0.01 | 39 | 1023.5 |
| 20260506164316 | 55 | 315 | 1.7 | 2.6 | 0.00 | 0.01 | 0.01 | 41 | 1023.6 |
| 20260506163813 | 54 | 111 | 1.7 | 5.2 | 0.00 | 0.01 | 0.01 | 40 | 1023.5 |
| 20260506163308 | 54 | 68 | 1.7 | 4.3 | 0.00 | 0.01 | 0.01 | 42 | 1023.4 |
| 20260506162804 | 54 | 327 | 1.7 | 2.6 | 0.00 | 0.01 | 0.01 | 43 | 1023.4 |
| 20260506162306 | 53 | 144 | 0.9 | 2.6 | 0.00 | 0.01 | 0.01 | 44 | 1023.5 |
| 20260506161759 | 52 | 54 | 2.6 | 2.6 | 0.00 | 0.01 | 0.01 | 45 | 1023.5 |
| 20260506161256 | 52 | 42 | 0.9 | 4.3 | 0.00 | 0.01 | 0.01 | 44 | 1023.4 |
| 20260506160754 | 51 | 53 | 2.6 | 5.2 | 0.00 | 0.01 | 0.01 | 45 | 1023.1 |
| 20260506160250 | 51 | 65 | 0.9 | 9.6 | 0.00 | 0.01 | 0.01 | 47 | 1023.4 |
| 20260506155749 | 50 | 330 | 3.5 | 5.2 | 0.00 | 0.01 | 0.01 | 48 | 1023.2 |
| 20260506155245 | 50 | 351 | 1.7 | 4.3 | 0.00 | 0.01 | 0.01 | 48 | 1023.2 |
| 20260506153358 | 48 | 343 | 0.9 | 5.2 | 0.00 | 0.00 | 0.00 | 50 | 1023.1 |
| 20260506152855 | 48 | 122 | 2.6 | 4.3 | 0.00 | 0.00 | 0.00 | 51 | 1023.2 |
| 20260506152352 | 47 | 331 | 2.6 | 4.3 | 0.00 | 0.00 | 0.00 | 51 | 1023.5 |
| 20260506151851 | 46 | 325 | 4.3 | 7.0 | 0.00 | 0.00 | 0.00 | 51 | 1023.2 |
| 20260506151347 | 46 | 119 | 1.7 | 7.0 | 0.00 | 0.00 | 0.00 | 52 | 1023.2 |
| 20260506150845 | 46 | 82 | 1.7 | 4.3 | 0.00 | 0.00 | 0.00 | 54 | 1023.4 |
| 20260506150341 | 45 | 254 | 1.7 | 2.6 | 0.00 | 0.00 | 0.00 | 56 | 1023.4 |
| 20260506145838 | 45 | 193 | 0.0 | 0.9 | 0.00 | 0.00 | 0.00 | 59 | 1023.1 |
| 20260506145334 | 44 | 339 | 1.7 | 4.3 | 0.00 | 0.00 | 0.00 | 57 | 1023.2 |
| 20260506144832 | 44 | 81 | 0.9 | 2.6 | 0.00 | 0.00 | 0.00 | 60 | 1023.1 |
| 20260506144328 | 44 | 187 | 0.0 | 7.0 | 0.00 | 0.00 | 0.00 | 58 | 1023.2 |
| 20260506143827 | 43 | 29 | 0.9 | 1.7 | 0.00 | 0.00 | 0.00 | 62 | 1023.4 |
| 20260506143323 | 43 | 77 | 0.9 | 2.6 | 0.00 | 0.00 | 0.00 | 62 | 1023.2 |
| 20260506142822 | 42 | 153 | 0.0 | 0.9 | 0.00 | 0.00 | 0.00 | 64 | 1023.2 |
| 20260506142319 | 42 | 108 | 2.6 | 2.6 | 0.00 | 0.00 | 0.00 | 63 | 1023.2 |
| 20260506141818 | 41 | 159 | 0.0 | 0.9 | 0.00 | 0.00 | 0.00 | 67 | 1023.0 |
| 20260506141315 | 40 | 222 | 0.0 | 1.7 | 0.00 | 0.00 | 0.00 | 67 | 1023.2 |
| 20260506140813 | 39 | 261 | 0.0 | 0.9 | 0.00 | 0.00 | 0.00 | 71 | 1023.1 |
| 20260506140309 | 37 | 271 | 0.0 | 0.9 | 0.00 | 0.00 | 0.00 | 75 | 1023.1 |
| 20260506135807 | 37 | 241 | 0.0 | 4.3 | 0.00 | 0.00 | 0.00 | 77 | 1023.1 |
| 20260506135305 | 35 | 187 | 0.0 | 0.9 | 0.00 | 0.00 | 0.00 | 80 | 1023.0 |
| 20260506134800 | 34 | 123 | 0.0 | 0.0 | 0.00 | 0.00 | 0.00 | 81 | 1023.1 |
| 20260506134256 | 34 | 123 | 0.0 | 0.0 | 0.00 | 0.00 | 0.00 | 83 | 1022.9 |
| 20260506133753 | 33 | 123 | 0.0 | 0.0 | 0.00 | 0.00 | 0.00 | 83 | 1022.8 |
| 20260506133250 | 33 | 117 | 0.9 | 2.6 | 0.00 | 0.00 | 0.00 | 83 | 1023.0 |
| 20260506132747 | 32 | 128 | 0.9 | 0.9 | 0.00 | 0.00 | 0.00 | 86 | 1022.9 |
| 20260506132244 | 32 | 124 | 0.9 | 0.9 | 0.00 | 0.00 | 0.00 | 89 | 1023.0 |
| 20260506131742 | 31 | 131 | 0.0 | 0.0 | 0.00 | 0.00 | 0.00 | 91 | 1022.8 |
| 20260506131238 | 30 | 132 | 0.0 | 0.0 | 0.00 | 0.00 | 0.00 | 93 | 1023.0 |
| 20260506130735 | 30 | 132 | 0.0 | 0.0 | 0.00 | 0.00 | 0.00 | 93 | 1022.9 |
| 20260506130232 | 30 | 132 | 0.0 | 0.0 | 0.00 | 0.00 | 0.00 | 93 | 1022.8 |
| 20260506125730 | 30 | 132 | 0.0 | 0.0 | 0.00 | 0.00 | 0.00 | 93 | 1022.9 |
| 20260506125227 | 30 | 132 | 0.0 | 0.0 | 0.00 | 0.00 | 0.00 | 91 | 1022.6 |
| 20260506124725 | 30 | 132 | 0.0 | 0.0 | 0.00 | 0.00 | 0.00 | 90 | 1022.6 |
| 20260506124223 | 30 | 132 | 0.0 | 0.0 | 0.00 | 0.00 | 0.00 | 89 | 1022.5 |
| 20260506123720 | 30 | 132 | 0.0 | 0.0 | 0.00 | 0.00 | 0.00 | 89 | 1022.6 |
| 20260506123219 | 30 | 132 | 0.0 | 0.0 | 0.00 | 0.00 | 0.00 | 89 | 1022.4 |
| 20260506122715 | 30 | 132 | 0.0 | 0.0 | 0.00 | 0.00 | 0.00 | 90 | 1022.4 |
| 20260506122213 | 30 | 132 | 0.0 | 0.0 | 0.00 | 0.00 | 0.00 | 90 | 1022.4 |
| 20260506121710 | 30 | 133 | 0.0 | 0.0 | 0.00 | 0.00 | 0.00 | 91 | 1022.5 |
| 20260506121207 | 30 | 133 | 0.0 | 0.0 | 0.00 | 0.00 | 0.00 | 90 | 1022.1 |
| 20260506120705 | 30 | 133 | 0.0 | 0.0 | 0.00 | 0.00 | 0.00 | 91 | 1022.3 |
| 20260506120202 | 30 | 132 | 0.0 | 0.0 | 0.00 | 0.00 | 0.00 | 92 | 1022.1 |
| 20260506115700 | 30 | 132 | 0.0 | 0.0 | 0.00 | 0.00 | 0.00 | 93 | 1022.1 |
| 20260506115158 | 30 | 132 | 0.0 | 0.0 | 0.00 | 0.00 | 0.00 | 94 | 1022.0 |
| 20260506114655 | 30 | 132 | 0.0 | 0.0 | 0.00 | 0.00 | 0.00 | 95 | 1022.1 |
| 20260506114152 | 30 | 132 | 0.0 | 0.0 | 0.00 | 0.00 | 0.00 | 95 | 1022.1 |
| 20260506113651 | 30 | 133 | 0.0 | 0.0 | 0.00 | 0.00 | 0.00 | 96 | 1022.1 |
| 20260506113148 | 29 | 143 | 0.0 | 0.0 | 0.00 | 0.00 | 0.00 | 96 | 1022.0 |
| 20260506112644 | 29 | 144 | 0.0 | 0.0 | 0.00 | 0.00 | 0.00 | 96 | 1022.0 |
| 20260506112142 | 29 | 147 | 0.0 | 0.0 | 0.00 | 0.00 | 0.00 | 96 | 1022.1 |
| 20260506111639 | 28 | 147 | 0.0 | 0.0 | 0.00 | 0.00 | 0.00 | 96 | 1021.9 |
| 20260506111137 | 29 | 147 | 0.0 | 0.0 | 0.00 | 0.00 | 0.00 | 96 | 1022.0 |
| 20260506110634 | 29 | 114 | 0.0 | 0.0 | 0.00 | 0.00 | 0.00 | 96 | 1021.9 |
| 20260506110131 | 28 | 41 | 0.0 | 0.0 | 0.00 | 0.00 | 0.00 | 96 | 1021.8 |
| 20260506105628 | 29 | 41 | 0.0 | 0.0 | 0.00 | 0.00 | 0.00 | 96 | 1021.9 |
| 20260506105125 | 29 | 41 | 0.0 | 0.0 | 0.00 | 0.00 | 0.00 | 95 | 1021.9 |
| 20260506104623 | 29 | 41 | 0.0 | 0.0 | 0.00 | 0.00 | 0.00 | 95 | 1021.6 |
| 20260506104120 | 29 | 40 | 0.0 | 0.0 | 0.00 | 0.00 | 0.00 | 95 | 1021.4 |
| 20260506103617 | 29 | 40 | 0.0 | 0.0 | 0.00 | 0.00 | 0.00 | 95 | 1021.5 |
| 20260506103114 | 30 | 40 | 0.0 | 0.0 | 0.00 | 0.00 | 0.00 | 95 | 1021.8 |
| 20260506102612 | 30 | 40 | 0.0 | 0.0 | 0.00 | 0.00 | 0.00 | 95 | 1021.4 |
| 20260506102109 | 30 | 40 | 0.0 | 0.0 | 0.00 | 0.00 | 0.00 | 94 | 1021.6 |
| 20260506101606 | 30 | 40 | 0.0 | 0.0 | 0.00 | 0.00 | 0.00 | 94 | 1021.5 |
| 20260506101103 | 30 | 40 | 0.9 | 0.9 | 0.00 | 0.00 | 0.00 | 95 | 1021.4 |
| 20260506100601 | 30 | 55 | 0.9 | 1.7 | 0.00 | 0.00 | 0.00 | 96 | 1021.4 |
| 20260506100059 | 29 | 117 | 0.0 | 0.0 | 0.00 | 0.00 | 0.00 | 97 | 1021.3 |
| 20260506095557 | 29 | 114 | 0.0 | 0.9 | 0.00 | 0.00 | 0.00 | 97 | 1021.5 |
| 20260506095054 | 29 | 116 | 0.0 | 0.0 | 0.00 | 0.00 | 0.00 | 96 | 1021.4 |
| 20260506094551 | 29 | 116 | 0.0 | 0.0 | 0.00 | 0.00 | 0.00 | 96 | 1021.4 |
| 20260506094049 | 29 | 116 | 0.0 | 0.0 | 0.00 | 0.00 | 0.00 | 96 | 1021.3 |
| 20260506093547 | 29 | 116 | 0.0 | 0.0 | 0.00 | 0.00 | 0.00 | 96 | 1021.3 |
| 20260506093044 | 29 | 116 | 0.0 | 0.0 | 0.00 | 0.00 | 0.00 | 96 | 1021.3 |
| 20260506092542 | 29 | 116 | 0.0 | 0.0 | 0.00 | 0.00 | 0.00 | 96 | 1021.1 |
| 20260506092039 | 30 | 116 | 0.0 | 0.0 | 0.00 | 0.00 | 0.00 | 96 | 1021.1 |
| 20260506091537 | 29 | 116 | 0.0 | 0.0 | 0.00 | 0.00 | 0.00 | 96 | 1021.4 |
| 20260506091034 | 29 | 116 | 0.0 | 0.0 | 0.00 | 0.00 | 0.00 | 96 | 1021.3 |
| 20260506090532 | 30 | 116 | 0.0 | 0.0 | 0.00 | 0.00 | 0.00 | 95 | 1021.3 |
| 20260506090028 | 30 | 116 | 0.0 | 0.0 | 0.00 | 0.00 | 0.00 | 95 | 1021.5 |
| 20260506085525 | 30 | 115 | 0.0 | 0.0 | 0.00 | 0.00 | 0.00 | 95 | 1021.1 |
| 20260506085021 | 30 | 115 | 0.0 | 0.0 | 0.00 | 0.00 | 0.00 | 94 | 1021.3 |
| 20260506084518 | 30 | 114 | 0.0 | 0.0 | 0.00 | 0.00 | 0.00 | 94 | 1021.1 |
| 20260506084014 | 30 | 114 | 0.0 | 0.0 | 0.00 | 0.00 | 0.00 | 93 | 1021.3 |
| 20260506083512 | 31 | 114 | 0.0 | 0.0 | 0.00 | 0.00 | 0.00 | 93 | 1021.1 |
| 20260506083009 | 31 | 114 | 0.0 | 0.0 | 0.00 | 0.00 | 0.00 | 92 | 1021.4 |
| 20260506082506 | 31 | 114 | 0.0 | 0.0 | 0.00 | 0.00 | 0.00 | 92 | 1021.6 |
| 20260506082001 | 31 | 114 | 0.0 | 0.0 | 0.00 | 0.00 | 0.00 | 91 | 1021.5 |
| 20260506081500 | 32 | 114 | 0.0 | 0.0 | 0.00 | 0.00 | 0.00 | 91 | 1021.4 |
| 20260506080957 | 32 | 114 | 0.0 | 0.0 | 0.00 | 0.00 | 0.00 | 90 | 1021.4 |
| 20260506080454 | 32 | 114 | 0.0 | 0.9 | 0.00 | 0.00 | 0.00 | 90 | 1021.3 |
| 20260506073438 | 32 | 73 | 1.7 | 1.7 | 0.00 | 0.00 | 0.00 | 91 | 1021.9 |
| 20260506072935 | 32 | 102 | 0.9 | 0.9 | 0.00 | 0.00 | 0.00 | 92 | 1021.5 |
| 20260506072432 | 32 | 109 | 0.0 | 0.9 | 0.00 | 0.00 | 0.00 | 91 | 1021.8 |
| 20260506071930 | 33 | 97 | 0.9 | 1.7 | 0.00 | 0.00 | 0.00 | 92 | 1021.5 |
| 20260506071428 | 33 | 112 | 0.0 | 0.9 | 0.00 | 0.00 | 0.00 | 92 | 1021.6 |
| 20260506070924 | 33 | 116 | 0.0 | 0.9 | 0.00 | 0.00 | 0.00 | 91 | 1021.5 |
| 20260506070421 | 33 | 108 | 0.0 | 1.7 | 0.00 | 0.00 | 0.00 | 91 | 1021.5 |
| 20260506062359 | 34 | 104 | 0.9 | 0.9 | 0.00 | 0.11 | 0.11 | 92 | 1021.0 |
| 20260506061854 | 34 | 112 | 0.0 | 0.9 | 0.00 | 0.11 | 0.11 | 92 | 1021.1 |
| 20260506061351 | 34 | 112 | 0.9 | 0.9 | 0.00 | 0.11 | 0.11 | 92 | 1021.3 |
| 20260506060849 | 35 | 111 | 0.0 | 0.0 | 0.00 | 0.11 | 0.11 | 91 | 1021.1 |
| 20260506060347 | 35 | 109 | 0.0 | 0.0 | 0.00 | 0.11 | 0.11 | 91 | 1021.0 |